#timestamp,LO_Frequency,Hit,StdDev 
1636484415.8,286046993.1,N
1636484435.6,286046991.0,N
1636484455.4,286046989.4,Y
1636484475.3,286046990.8,P
1636484495.1,286046988.9,P
1636484515.8,286046990.4,N
1636484535.7,286046992.1,N
1636484555.5,286046993.8,N
1636484575.3,286046997.9,N
1636484595.2,286046999.5,N
1636484615.0,286047001.0,N
1636484615.9,286047001.0,N
1636484635.8,286047001.5,N
1636484655.6,286047005.8,N
1636484675.4,286047006.2,N
1636484695.3,286047010.4,N
1636484715.1,286047010.0,N
1636484735.8,286047009.8,N
1636484755.7,286047009.6,N
1636484775.5,286047011.2,N
1636484795.3,286047010.0,N
1636484815.2,286047009.0,N
1636484835.0,286047007.7,N
1636484835.9,286047007.7,N
1636484855.8,286047008.9,N
1636484875.6,286047006.8,N
1636484895.4,286047003.5,N
1636484915.3,286047004.0,N
1636484935.1,286047001.3,N
1636484955.8,286047001.9,N
1636484975.7,286047002.6,N
1636484995.5,286047011.9,N
1636485015.4,286046999.9,N
1636485035.2,286047002.1,N
1636485055.0,286047001.9,N
1636485055.9,286047001.9,N
1636485075.8,286047002.8,N
1636485095.6,286047002.7,N
1636485115.4,286047000.2,N
1636485135.3,286047002.6,N
1636485155.1,286047002.8,N
1636485175.8,286047002.7,N
1636485195.7,286047004.3,N
1636485215.5,286047011.9,Y
1636485235.4,286046997.2,P
1636485255.2,286046999.5,N
1636485275.0,286046999.5,N
1636485275.9,286046999.5,N
1636485295.8,286046996.6,N
1636485315.6,286046999.6,N
1636485335.4,286046999.6,N
1636485355.3,286046997.0,N
1636485375.1,286046999.6,N
1636485395.9,286046999.1,N
1636485415.7,286046998.4,N
1636485435.5,286047000.8,N
1636485455.4,286047000.0,N
1636485475.2,286047002.4,N
1636485495.0,286047002.6,N
1636485495.9,286047002.6,N
1636485515.8,286047002.3,N
1636485535.6,286047001.4,N
1636485555.4,286047004.0,N
1636485575.3,286047005.9,N
1636485595.1,286047004.7,N
1636485615.9,286047004.6,N
1636485635.7,286047007.1,N
1636485655.5,286047007.3,N
1636485675.4,286047006.4,N
1636485695.2,286047006.1,N
1636485715.0,286047008.9,N
1636485715.9,286047008.9,N
1636485735.8,286047007.7,N
1636485755.6,286047010.1,N
1636485775.4,286047012.0,Y
1636485795.3,286047008.1,P
1636485815.1,286047010.4,P
1636485835.9,286047009.6,N
1636485855.7,286047009.5,Y
1636485875.5,286047003.7,P
1636485895.4,286047003.7,N
1636485915.2,286047002.9,N
1636485935.0,286047005.4,N
1636485935.9,286047005.4,Y
1636485955.8,286046999.9,P
1636485975.6,286047000.1,N
1636485995.5,286047002.4,N
1636486015.3,286047002.0,N
1636486035.1,286047001.5,N
1636486055.9,286047001.3,N
1636486075.7,286047003.5,N
1636486095.5,286047003.0,N
1636486115.4,286047005.4,Y
1636486135.2,286047003.4,P
1636486155.0,286047005.4,P
1636486155.9,286047005.4,P
1636486175.8,286047007.2,Y
1636486195.6,286047001.3,P
1636486215.5,286047004.4,P
1636486235.3,286047003.8,N
1636486255.1,286047003.3,N
1636486275.9,286047005.6,Y
1636486295.7,286047003.8,P
1636486315.5,286047005.6,P
1636486335.4,286047002.9,N
1636486355.2,286047005.9,Y
1636486375.1,286047000.0,P
1636486376.0,286047000.0,N
1636486395.8,286047000.1,N
1636486415.6,286047001.6,N
1636486435.5,286047001.9,N
1636486455.3,286047001.4,N
1636486475.1,286047004.1,Y
1636486495.9,286047001.6,P
1636486515.7,286047001.4,P
1636486535.6,286047003.2,P
1636486555.4,286047005.5,Y
1636486575.2,286047003.6,P
1636486595.1,286047003.3,P
1636486596.0,286047003.3,P
1636486615.8,286047006.0,Y
1636486635.6,286047001.9,P
1636486655.5,286047001.7,N
1636486675.3,286047003.1,P
1636486695.2,286047003.4,Y
1636486715.9,286047002.5,P
1636486735.7,286047004.4,P
1636486755.6,286047004.0,P
1636486775.4,286047003.3,Y
1636486795.2,286047001.9,P
1636486815.1,286047001.4,N
1636486816.0,286047001.4,N
1636486835.8,286047003.9,Y
1636486855.7,286047002.4,P
1636486875.5,286047001.7,P
1636486895.3,286047003.8,P
1636486915.2,286047003.7,Y
1636486935.0,286046999.9,P
1636486935.9,286046999.9,N
1636486955.7,286047002.6,N
1636486975.6,286047001.4,N
1636486995.4,286047003.4,N
1636487015.3,286047005.8,Y
1636487035.1,286047004.0,P
1636487036.0,286047004.0,P
1636487055.8,286047004.1,P
1636487075.7,286047003.0,N
1636487095.5,286047002.9,Y
1636487115.3,286047002.1,P
1636487135.2,286047002.5,P
1636487155.0,286047001.5,N
1636487155.9,286047001.5,N
1636487175.8,286047004.3,Y
1636487195.6,286047002.7,P
1636487215.4,286047002.2,P
1636487235.3,286047001.6,P
1636487255.1,286047001.3,Y
1636487275.8,286047002.5,P
1636487295.7,286047001.7,P
1636487315.5,286047001.3,P
1636487335.4,286047003.8,Y
1636487355.2,286047002.2,P
1636487375.0,286047004.3,P
1636487375.9,286047004.3,P
1636487395.8,286047004.0,Y
1636487415.6,286047000.8,P
1636487435.4,286047002.8,N
1636487455.3,286047002.1,N
1636487475.1,286047004.4,Y
1636487495.9,286047000.0,P
1636487515.7,286047002.4,N
1636487535.5,286047001.8,N
1636487555.4,286047004.2,Y
1636487575.2,286047002.0,P
1636487595.0,286047001.8,P
1636487595.9,286047001.8,P
1636487615.8,286047002.1,Y
1636487635.6,286046999.8,P
1636487655.4,286047002.5,N
1636487675.3,286047001.7,N
1636487695.1,286047003.8,Y
1636487715.9,286047001.4,P
1636487735.7,286047004.2,P
1636487755.5,286047004.1,P
1636487775.4,286047005.6,Y
1636487795.2,286047001.4,P
1636487815.0,286047004.0,P
1636487815.9,286047004.0,P
1636487835.8,286047003.6,Y
1636487855.6,286047002.5,P
1636487875.4,286047001.3,P
1636487895.3,286047004.3,P
1636487915.1,286047004.0,Y
1636487935.9,286047000.4,P
1636487955.7,286046999.7,N
1636487975.5,286047002.1,N
1636487995.4,286047002.1,N
